User: anonymous   Login
Location: Bakov nad Jizerou
(50.4784°N, 14.9394°E)
Time: 20:16:28
(UTC+00:00)
Language:

RESURS O1 DEB - Orbit

View from above orbital plane
View from above orbital plane
View from above satellite
View from above satellite

Ground track
Ground track

The orbit data is extracted from the following two-line orbital elements,

1 49036U 94074EZ  22015.40765648  .00014919  00000-0  18177-2 0  9996
2 49036  97.8951  66.9462 0001103 294.5750  65.5349 14.83485343 30382
Epoch (UTC): 15 January 2022 09:47:01
Eccentricity: 0.0001103
inclination: 97.8951°
perigee height: 617 km
apogee height: 619 km
right ascension of ascending node: 66.9462°
argument of perigee: 294.5750°
revolutions per day: 14.83485343
mean anomaly at epoch: 65.5349°
orbit number at epoch: 3038

The dashed part of the orbit path shows where the satellite is in the earth's shadow,  

DLR